Location: Aufkirchen
(47.9603°N, 11.3653°E)
Time: 11:44:34
(UTC+01:00)

Tiros 1 - Pass Details

Date: 27 November 2020
Orbit: 630 x 663 km, 48.4° (Epoch: 21 January)

Event Time Altitude Azimuth Distance (km) Brightness Sun altitude
Rises 15:19:58 0° 204° (SSW) 2,981 12.1 7.9°
Reaches altitude 10° 15:22:46 10° 188° (S) 2,071 10.7 7.5°
Maximum altitude 15:26:19 21° 140° (SE) 1,476 9.1 7.1°
Drops below altitude 10° 15:29:53 10° 92° (E) 2,072 9.4 6.6°
Sets 15:32:41 0° 77° (ENE) 2,983 10.0 6.3°
